Location: Unspecified
(0.0000°N, 0.0000°E)
Time: 08:20:57
(UTC+00:00)

Transit 4A - Pass Details

Date: 06 October 2023
Orbit: 864 x 979 km, 66.8° (Epoch: 05 December)

Event Time Altitude Azimuth Distance (km) Brightness Sun altitude
Rises 18:46:11 0° 17° (NNE) 3,563 10.7 -14.5°
Enters shadow 18:49:28 - 36° (NE) 2,763 10.0 -15.3°
Reaches altitude 10° 18:50:27 10° 45° (NE) 2,595 - -15.5°
Maximum altitude 18:52:52 13° 69° (ENE) 2,401 - -16.1°
Drops below altitude 10° 18:55:16 10° 93° (E) 2,567 - -16.7°
Sets 18:59:24 0° 121° (ESE) 3,486 - -17.7°
